Weather History for KDKK - August, 2013

Change the Weather History Date:

Sunday, August 4, 2013

  Actual Average Record
Temperature  
Mean Temperature 66 °F -  
Max Temperature 71 °F 78 °F 96 °F (2012)
Min Temperature 61 °F 62 °F 52 °F (1927)
Cooling Degree Days 1    
Growing Degree Days 16 (Base 50)    
Moisture  
Dew Point 54 °F    
Average Humidity 66    
Maximum Humidity 78    
Minimum Humidity 52    
Precipitation  
Precipitation 0.00 in - - ()
Sea Level Pressure  
Sea Level Pressure 30.04 in    
Wind  
Wind Speed 14 mph (WNW)    
Max Wind Speed 17 mph    
Max Gust Speed 26 mph    
Visibility 10 miles    
Events      
Averages and records for this station are not official NWS values.
T = Trace of Precipitation, MM = Missing Value Source: NWS Daily Summary

Daily Weather History Graph

Daily Weather History Graph

Search for Another Location

Airport or City:

Trip Planner

Search our weather history database for the weather conditions in past years. The results will help you decide how hot, cold, wet, or windy it might be!

Date:

Astronomy

Aug. 04, 2013 Rise Set
Actual Time 6:12 AM EDT 8:33 PM EDT
Civil Twilight 5:41 AM EDT 9:04 PM EDT
Nautical Twilight 5:02 AM EDT 9:43 PM EDT
Astronomical Twilight 4:18 AM EDT 10:26 PM EDT
Moon 4:11 AM EDT (8/4) 6:55 PM EDT (8/4)
Length of Visible Light 15h 23m
Length of Day
14h 20m
Waning Crescent, 5% of the Moon is Illuminated
Aug 4
Waning Crescent
Aug 6
New
Aug 14
First Quarter
Aug 20
Full
Aug 28
Last Quarter

Hourly Weather History & Observations

Time (EDT) Temp. Dew Point Humidity Pressure Visibility Wind Dir Wind Speed Gust Speed Precip Events Conditions
12:53 AM 66.0 °F 54.0 °F 65% 29.99 in 10.0 mi NW 15.0 mph - N/A   Overcast
1:53 AM 64.0 °F 54.0 °F 70% 29.99 in 10.0 mi NW 13.8 mph - N/A   Mostly Cloudy
2:53 AM 64.0 °F 52.0 °F 65% 29.99 in 10.0 mi WNW 16.1 mph - N/A   Overcast
3:53 AM 62.1 °F 53.1 °F 72% 29.99 in 10.0 mi WNW 17.3 mph 24.2 mph N/A   Partly Cloudy
4:53 AM 62.1 °F 53.1 °F 72% 30.00 in 10.0 mi NW 13.8 mph - N/A   Scattered Clouds
5:53 AM 61.0 °F 54.0 °F 78% 30.00 in 10.0 mi WNW 13.8 mph - N/A   Mostly Cloudy
6:53 AM 61.0 °F 54.0 °F 78% 30.01 in 10.0 mi NW 12.7 mph - N/A   Overcast
7:53 AM 63.0 °F 55.0 °F 75% 30.02 in 10.0 mi WNW 12.7 mph - N/A   Mostly Cloudy
8:53 AM 63.0 °F 55.9 °F 78% 30.04 in 10.0 mi NW 11.5 mph - N/A   Overcast
9:53 AM 64.0 °F 55.9 °F 75% 30.04 in 10.0 mi WNW 13.8 mph - N/A   Mostly Cloudy
10:53 AM 64.9 °F 55.9 °F 73% 30.06 in 10.0 mi West 15.0 mph - N/A   Mostly Cloudy
11:02 AM 66.2 °F 57.2 °F 73% 30.07 in 10.0 mi WNW 13.8 mph - N/A   Mostly Cloudy
11:53 AM 66.9 °F 55.0 °F 66% 30.07 in 10.0 mi West 12.7 mph - N/A   Mostly Cloudy
12:53 PM 66.9 °F 55.9 °F 68% 30.07 in 10.0 mi WNW 11.5 mph - N/A   Mostly Cloudy
1:53 PM 66.9 °F 55.9 °F 68% 30.07 in 10.0 mi West 10.4 mph 18.4 mph N/A   Overcast
2:53 PM 70.0 °F 55.9 °F 61% 30.06 in 10.0 mi WSW 11.5 mph 20.7 mph N/A   Scattered Clouds
3:53 PM 70.0 °F 55.0 °F 59% 30.05 in 10.0 mi WSW 15.0 mph 20.7 mph N/A   Partly Cloudy
4:53 PM 71.1 °F 57.0 °F 61% 30.05 in 10.0 mi West 17.3 mph 26.5 mph N/A   Clear
5:53 PM 70.0 °F 57.0 °F 63% 30.05 in 10.0 mi WSW 15.0 mph 26.5 mph N/A   Clear
6:53 PM 70.0 °F 55.9 °F 61% 30.05 in 10.0 mi WSW 12.7 mph 20.7 mph N/A   Scattered Clouds
7:53 PM 70.0 °F 53.1 °F 55% 30.05 in 10.0 mi West 13.8 mph - N/A   Partly Cloudy
8:53 PM 66.9 °F 52.0 °F 59% 30.06 in 10.0 mi North 8.1 mph - N/A   Partly Cloudy
9:53 PM 64.9 °F 46.9 °F 52% 30.09 in 10.0 mi North 6.9 mph - N/A   Clear
10:53 PM 64.0 °F 46.9 °F 54% 30.09 in 10.0 mi Variable 6.9 mph - N/A   Clear
11:53 PM 62.1 °F 46.9 °F 58% 30.10 in 10.0 mi Variable 5.8 mph - N/A   Clear